Weather History for New York JFK, NY

Change the Weather History Date:

Monday, April 22, 2013

  Actual Average Record
Temperature  
Mean Temperature 45 °F 53 °F  
Max Temperature 53 °F 61 °F 82 °F (2001)
Min Temperature 37 °F 46 °F 37 °F (1950)
Degree Days  
Heating Degree Days 20 12  
Month to date heating degree days 328 334  
Since 1 July heating degree days 4424 4570  
Cooling Degree Days 0 0  
Month to date cooling degree days 0 0  
Year to date cooling degree days 0 0  
Moisture  
Dew Point 30 °F    
Average Humidity 56    
Maximum Humidity 76    
Minimum Humidity 35    
Precipitation  
Precipitation 0.00 in 0.12 in 2.14 in (2012)
Month to date precipitation 1.73 2.90  
Year to date precipitation 9.17 12.43  
Snow  
Snow 0.00 in 0.00 in - ()
Month to date snowfall 0.0 0.8  
Since 1 July snowfall 17.6 23.8  
Snow Depth 0.00 in    
Sea Level Pressure  
Sea Level Pressure 30.60 in    
Wind  
Wind Speed 16 mph (East)    
Max Wind Speed 28 mph    
Max Gust Speed 35 mph    
Visibility 10 miles    
Events      
T = Trace of Precipitation, MM = Missing Value Source: NWS Daily Summary

Daily Weather History Graph

Daily Weather History Graph

Search for Another Location

Airport:

Trip Planner

Search our weather history database for the weather conditions in past years. The results will help you decide how hot, cold, wet, or windy it might be!

Date:

Astronomy

Apr. 22, 2013 Rise Set
Actual Time 6:05 AM EDT 7:41 PM EDT
Civil Twilight 5:36 AM EDT 8:10 PM EDT
Nautical Twilight 5:02 AM EDT 8:45 PM EDT
Astronomical Twilight 4:24 AM EDT 9:23 PM EDT
Moon 4:27 PM EDT 3:59 AM EDT
Length of Visible Light 14h 34m
Length of Day
13h 36m
Waxing Gibbous, 87% of the Moon is Illuminated
Apr 22
Waxing Gibbous
Apr 25
Full
May 2
Last Quarter
May 9
New
May 18
First Quarter

Hourly Weather History & Observations

Time (EDT) Temp. Windchill Dew Point Humidity Pressure Visibility Wind Dir Wind Speed Gust Speed Precip Events Conditions
12:51 AM 41.0 °F 38.0 °F 28.9 °F 62% 30.64 in 10.0 mi East 4.6 mph - N/A   Mostly Cloudy
1:51 AM 39.9 °F 37.8 °F 28.0 °F 63% 30.64 in 10.0 mi East 3.5 mph - N/A   Mostly Cloudy
2:51 AM 39.9 °F 35.8 °F 30.0 °F 68% 30.63 in 10.0 mi ENE 5.8 mph - N/A   Mostly Cloudy
3:51 AM 39.0 °F 35.7 °F 30.9 °F 73% 30.63 in 10.0 mi NE 4.6 mph - N/A   Mostly Cloudy
4:51 AM 39.0 °F 34.0 °F 30.0 °F 70% 30.63 in 10.0 mi NNE 6.9 mph - N/A   Mostly Cloudy
5:51 AM 37.9 °F 32.7 °F 30.0 °F 73% 30.65 in 10.0 mi NE 6.9 mph - N/A   Scattered Clouds
6:51 AM 39.0 °F 34.0 °F 32.0 °F 76% 30.65 in 10.0 mi NE 6.9 mph - N/A   Scattered Clouds
7:51 AM 44.1 °F 38.1 °F 30.9 °F 60% 30.64 in 10.0 mi ENE 11.5 mph 21.9 mph N/A   Scattered Clouds
8:51 AM 46.0 °F 38.8 °F 30.9 °F 56% 30.67 in 10.0 mi East 18.4 mph - N/A   Scattered Clouds
9:51 AM 48.0 °F - 28.9 °F 48% 30.66 in 10.0 mi East 20.7 mph 27.6 mph N/A   Scattered Clouds
10:51 AM 50.0 °F - 28.9 °F 44% 30.65 in 10.0 mi East 15.0 mph 25.3 mph N/A   Scattered Clouds
11:51 AM 51.1 °F - 30.9 °F 46% 30.66 in 10.0 mi ESE 21.9 mph 27.6 mph N/A   Scattered Clouds
12:51 PM 51.1 °F - 32.0 °F 48% 30.62 in 10.0 mi East 20.7 mph 27.6 mph N/A   Mostly Cloudy
1:51 PM 51.1 °F - 30.0 °F 44% 30.60 in 10.0 mi East 21.9 mph 29.9 mph N/A   Scattered Clouds
2:51 PM 52.0 °F - 28.9 °F 41% 30.58 in 10.0 mi ESE 25.3 mph 33.4 mph N/A   Scattered Clouds
3:51 PM 52.0 °F - 27.0 °F 38% 30.56 in 10.0 mi East 15.0 mph 29.9 mph N/A   Scattered Clouds
4:51 PM 51.1 °F - 24.1 °F 35% 30.55 in 10.0 mi ESE 25.3 mph 34.5 mph N/A   Scattered Clouds
5:51 PM 50.0 °F - 27.0 °F 41% 30.54 in 10.0 mi East 23.0 mph 29.9 mph N/A   Scattered Clouds
6:51 PM 48.9 °F - 28.9 °F 46% 30.53 in 10.0 mi East 19.6 mph 27.6 mph N/A   Mostly Cloudy
7:51 PM 48.0 °F - 30.9 °F 52% 30.53 in 10.0 mi East 16.1 mph 24.2 mph N/A   Mostly Cloudy
8:51 PM 46.9 °F - 32.0 °F 56% 30.53 in 10.0 mi East 19.6 mph - N/A   Mostly Cloudy
9:51 PM 46.0 °F 39.3 °F 30.9 °F 56% 30.53 in 10.0 mi East 16.1 mph - N/A   Mostly Cloudy
10:51 PM 45.0 °F 37.6 °F 30.9 °F 58% 30.52 in 10.0 mi East 17.3 mph - N/A   Overcast
11:51 PM 44.1 °F 37.1 °F 32.0 °F 63% 30.50 in 10.0 mi ENE 15.0 mph - N/A   Overcast